PLATFORM,DATE (YYYY/MM/DD HH:MI:SS),LATITUDE (degree_north),LONGITUDE (degree_east),WSPE_MODEL LEVEL0(meter/second),WSTN_MODEL LEVEL0(newton/m2),WSTE_MODEL LEVEL0(newton/m2),WSPN_MODEL LEVEL0(meter/second),DEPH LEVEL1(meter),TEMP LEVEL1(degree_Celsius),DEPH LEVEL2(meter),NSCT LEVEL2(meter/second),EWCT LEVEL2(meter/second),CURRENT_TEST LEVEL2(none),QC,SVP_RCBN_Number,SVP_GNRL_ImmPercent,SVP_GNRL_BattVolt
61941,2012/03/07 10:00:00,43.1010,5.8880,,,,,0.5,-5,50,,,,01449999747999,1,0,0
61941,2012/03/07 10:30:00,43.1010,5.8880,,,,,0.5,-5,50,0,0,,01449999747009,1,0,0
61941,2012/03/07 10:32:48,43.1065,5.8841,,,,,0.5,15.96,50,3.64031,-1.88466,,01449999747009,1,100,10.7
61941,2012/03/07 11:02:48,43.1065,5.8841,,,,,0.5,15.96,50,0,0,,01449999747009,1,100,11
61941,2012/03/07 11:30:03,43.1064,5.8841,,,,,0.5,26.84,50,-0.006801,0,,01449999747009,3,88,11
61941,2012/03/07 12:00:07,43.1065,5.8840,,,,,0.5,32.76,50,0.006164,-0.0045,,01449999747009,3,41,11
61941,2012/03/07 12:30:15,43.1063,5.8838,,,,,0.5,34.04,50,-0.0123,-0.00898,,01449999747009,1,41,11
61941,2012/03/07 13:00:16,43.1064,5.8842,,,,,0.5,34.2,50,0.006174,0.01803,,01449999747009,1,15,11
61941,2012/03/07 13:30:10,43.1057,5.8848,,,,,0.5,35.88,50,-0.043387,0.027151,,01449999747009,1,15,11
61941,2012/03/07 14:00:07,43.1059,5.8834,,,,,0.5,35.88,50,0.012376,-0.063247,,01449999747009,1,36,11
61941,2012/03/07 14:30:16,43.1065,5.8841,,,,,0.5,35.88,50,0.036881,0.031414,,01449999747009,3,36,11
61941,2012/03/07 15:00:06,43.1064,5.8840,,,,,0.5,35.88,50,-0.006212,-0.004535,,01449999747009,3,9,11
61941,2012/03/07 15:30:05,43.1066,5.8841,,,,,0.5,35.88,50,0.012362,0.004513,,01449999747009,4,9,11
61941,2012/03/07 16:00:21,43.1063,5.8844,,,,,0.5,35.88,50,-0.018369,0.013411,,01449999747009,4,17,11
61941,2012/03/07 16:30:38,43.1064,5.8841,,,,,0.5,35.88,50,0.00612,-0.013404,,01449999747009,1,17,11
61941,2012/03/07 17:00:28,43.1065,5.8841,,,,,0.5,34.2,50,0.006212,0,,01449999747009,1,60,11
61941,2012/03/07 17:30:26,43.1062,5.8838,,,,,0.5,25.24,50,-0.018553,-0.013545,,01449999747009,3,60,11
61941,2012/03/07 18:00:09,43.1064,5.8841,,,,,0.5,19.8,50,0.012473,0.013659,,01449999747009,3,30,11
61941,2012/03/07 18:30:05,43.1064,5.8843,,,,,0.5,17.08,50,0,0.00904,,01449999747009,3,30,11
61941,2012/03/07 19:00:21,43.1065,5.8842,,,,,0.5,15.48,50,0.006123,-0.00447,,01449999747009,3,14,11
61941,2012/03/07 19:30:24,43.1063,5.8840,,,,,0.5,14.44,50,-0.012334,-0.009005,,01449999747009,1,14,11
61941,2012/03/07 20:00:08,43.1065,5.8840,,,,,0.5,13.72,50,0.012466,0,,01449999747009,1,9,11
61941,2012/03/07 20:30:08,43.1064,5.8840,,,,,0.5,13.16,50,-0.006177,0,,01449999747009,1,9,11
61941,2012/03/07 21:00:06,43.1059,5.8843,,,,,0.5,12.76,50,-0.030922,0.013545,,01449999747009,3,7,11
61941,2012/03/07 21:30:05,43.1064,5.8840,,,,,0.5,12.6,50,0.030905,-0.013538,,01449999747009,3,7,11
61941,2012/03/07 22:00:13,43.1063,5.8842,,,,,0.5,12.44,50,-0.00615,0.00898,,01449999747009,1,6,11
61941,2012/03/07 22:30:08,43.1065,5.8841,,,,,0.5,12.28,50,0.012389,-0.004523,,01449999747009,3,6,11
61941,2012/03/07 23:00:58,43.1065,5.8839,,,,,0.5,12.04,50,0,-0.008776,,01449999747009,3,6,11
61941,2012/03/08 00:00:08,43.1060,5.8839,,,,,0.5,11.16,50,-0.015661,0,,01449999747009,1,6,11
61941,2012/03/08 00:30:04,43.1066,5.7817,,,,,0.5,10.84,50,0.037148,-4.6196,,01449999747009,1,6,11
61941,2012/03/08 01:00:06,43.1063,5.8841,,,,,0.5,10.44,50,-0.018512,4.61322,,01449999747009,1,7,11
61941,2012/03/08 01:30:03,43.1058,5.8848,,,,,0.5,10.12,50,-0.030939,0.031624,,01449999747009,1,7,11
61941,2012/03/08 02:00:03,43.1065,5.8841,,,,,0.5,10.12,50,0.043242,-0.031571,,01449999747009,1,7,11
61941,2012/03/08 02:30:07,43.1067,5.8844,,,,,0.5,10.2,50,0.012328,0.0135,,01449999747009,1,7,11
61941,2012/03/08 03:00:05,43.1064,5.8840,,,,,0.5,10.44,50,-0.018553,-0.01806,,01449999747009,1,4,11
61941,2012/03/08 03:30:39,43.1064,5.8841,,,,,0.5,10.36,50,0,0.004426,,01449999747009,1,4,11
61941,2012/03/08 04:00:15,43.1065,5.8841,,,,,0.5,10.2,50,0.006261,0,,01449999747009,1,6,11
61941,2012/03/08 04:30:11,43.1063,5.8841,,,,,0.5,9.96,50,-0.012383,0,,01449999747009,1,6,11
61941,2012/03/08 05:00:09,43.1065,5.8841,,,,,0.5,9.88,50,0.012369,0,,01449999747009,1,6,11
61941,2012/03/08 05:30:09,43.1065,5.8842,,,,,0.5,9.72,50,0,0.00451,,01449999747009,1,6,11
61941,2012/03/08 06:00:30,43.1066,5.8842,,,,,0.5,9.24,50,0.006106,0,,01449999747009,1,6,11
61941,2012/03/08 06:30:03,43.1065,5.8844,,,,,0.5,8.92,50,-0.006272,0.009158,,01449999747009,1,6,11
61941,2012/03/08 07:00:36,43.1063,5.8842,,,,,0.5,8.92,50,-0.012133,-0.008858,,01449999747009,1,7,11
61941,2012/03/08 07:30:11,43.1064,5.8841,,,,,0.5,9.4,50,0.006265,-0.004574,,01449999747009,1,7,11
61941,2012/03/12 17:30:00,42.6945,6.1054,,,,,0.5,-5,50,-0.12004,0.047245,,01449999747009,4,0,0
61941,2012/03/12 18:00:59,42.7327,6.1365,,,,,0.5,14.12,50,2.2873,1.36549,,01449999747009,4,0,10.7
61941,2012/03/12 18:31:30,42.7167,6.1357,,,,,0.5,14.12,50,-0.971665,-0.03569,,01449999747009,3,12,10.7
61941,2012/03/12 19:00:09,42.7029,6.1347,,,,,0.5,14.12,50,-0.892664,-0.047531,,01449999747009,3,9,10.9
61941,2012/03/12 19:30:06,42.6772,6.1447,,,,,0.5,14.12,50,-1.59027,0.454824,,01449999747009,3,9,10.9
61941,2012/03/12 20:00:24,42.7194,6.2592,,,,,0.5,14.04,50,2.58109,5.14689,,01449999747009,1,7,11
61941,2012/03/12 20:30:07,42.7611,6.3748,,,,,0.5,13.96,50,2.60058,5.29476,,01449999747009,1,7,11
61941,2012/03/12 21:32:28,42.8520,6.6170,,,,,0.5,13.88,50,2.70185,5.28155,,01449999747009,1,6,11
61941,2012/03/12 22:00:24,42.8901,6.7233,,,,,0.5,13.96,50,2.52776,5.1687,,01449999747009,1,6,11
61941,2012/03/12 23:00:19,42.9665,6.9425,,,,,0.5,13.88,50,2.36309,4.96433,,01449999747009,1,6,11
61941,2012/03/12 23:30:05,43.0052,7.0567,,,,,0.5,13.8,50,2.40943,5.20112,,01449999747009,1,6,11
61941,2012/03/13 00:00:52,43.0506,7.1699,,,,,0.5,13.8,50,2.73322,4.9819,,01449999747009,1,6,11
61941,2012/03/13 00:30:35,43.0783,7.2121,,,,,0.5,13.88,50,1.72748,1.92273,,01449999747009,1,6,11
61941,2012/03/13 01:00:48,43.1073,7.1877,,,,,0.5,13.88,50,1.77863,-1.09282,,01449999747009,1,9,11
61941,2012/03/13 01:30:31,43.1343,7.1605,,,,,0.5,13.88,50,1.68383,-1.23815,,01449999747009,1,9,11
61941,2012/03/13 02:00:07,43.1610,7.1326,,,,,0.5,13.8,50,1.67168,-1.27446,,01449999747009,1,6,11
61941,2012/03/13 02:30:58,43.1874,7.1037,,,,,0.5,13.8,50,1.58592,-1.2661,,01449999747009,1,6,11
61941,2012/03/13 03:00:05,43.2142,7.0764,,,,,0.5,13.88,50,1.70579,-1.26665,,01449999747009,1,6,11
61941,2012/03/13 03:30:16,43.2410,7.0483,,,,,0.5,13.88,50,1.64551,-1.25714,,01449999747009,1,6,11
61941,2012/03/13 04:00:15,43.2663,7.0175,,,,,0.5,13.8,50,1.56377,-1.38654,,01449999747009,1,7,11
61941,2012/03/13 04:30:30,43.2938,6.9928,,,,,0.5,13.72,50,1.68477,-1.10165,,01449999747009,1,7,11
61941,2012/03/13 05:00:21,43.3181,7.0284,,,,,0.5,13.72,50,1.50867,1.6084,,01449999747009,1,4,11
61941,2012/03/13 05:31:01,43.3276,7.1111,,,,,0.5,13.48,50,0.574104,3.63584,,01449999747009,1,4,11
61941,2012/03/13 06:00:28,43.3004,7.1378,,,,,0.5,13.64,50,-1.71166,1.22252,,01449999747009,1,6,11
61941,2012/03/13 06:30:22,43.2751,7.1632,,,,,0.5,13.72,50,-1.56813,1.14599,,01449999747009,1,6,11
61941,2012/03/13 07:30:06,43.2184,7.2144,,,,,0.5,13.96,50,-1.75914,1.15708,,01449999747009,1,9,11
61941,2012/03/13 08:00:03,43.1909,7.2406,,,,,0.5,14.04,50,-1.70165,1.18172,,01449999747009,1,7,11
61941,2012/03/13 08:30:34,43.1625,7.2667,,,,,0.5,14.2,50,-1.72471,1.15588,,01449999747009,1,7,11
61941,2012/03/13 09:00:05,43.1354,7.2933,,,,,0.5,14.12,50,-1.70151,1.21848,,01449999747009,1,6,11
61941,2012/03/13 09:30:14,43.1072,7.3197,,,,,0.5,14.04,50,-1.73339,1.18446,,01449999747009,1,6,11
61941,2012/03/13 10:30:18,43.0515,7.3894,,,,,0.5,14.04,50,-1.71852,1.57072,,01449999747009,1,7,11
61941,2012/03/13 11:00:16,43.0398,7.4762,,,,,0.5,13.72,50,-0.723571,3.92301,,01449999747009,1,7,11
61941,2012/03/13 11:30:06,43.0697,7.4511,,,,,0.5,13.88,50,1.85739,-1.13932,,01449999747009,1,7,11
61941,2012/03/13 12:01:06,43.1003,7.4244,,,,,0.5,14.2,50,1.82934,-1.16576,,01449999747009,1,12,11
61941,2012/03/13 12:30:21,43.1277,7.4027,,,,,0.5,14.36,50,1.73603,-1.00366,,01449999747009,1,12,11
61941,2012/03/13 13:00:09,43.1544,7.3752,,,,,0.5,14.6,50,1.66046,-1.24789,,01449999747009,1,11,11
61941,2012/03/13 13:30:26,43.1807,7.3499,,,,,0.5,15.32,50,1.60948,-1.12925,,01449999747009,3,11,11
61941,2012/03/13 14:00:15,43.2088,7.3261,,,,,0.5,16.12,50,1.74655,-1.07844,,01449999747009,3,11,11
61941,2012/03/13 14:30:09,43.2380,7.3024,,,,,0.5,16.12,50,1.80986,-1.07042,,01449999747009,1,11,11
61941,2012/03/13 15:00:34,43.2661,7.2783,,,,,0.5,16.52,50,1.7121,-1.06949,,01449999747009,1,9,11
61941,2012/03/13 15:30:22,43.2932,7.2489,,,,,0.5,17,50,1.68534,-1.33108,,01449999747009,1,9,11
61941,2012/03/13 16:00:39,43.3226,7.2227,,,,,0.5,17.64,50,1.79919,-1.16673,,01449999747009,1,6,11
61941,2012/03/13 16:30:24,43.3451,7.2078,,,,,0.5,17.48,50,1.40162,-0.675129,,01449999747009,1,6,11
61941,2012/03/13 17:00:45,43.3936,7.2162,,,,,0.5,17.24,50,2.96153,0.372867,,01449999747009,1,6,11
61941,2012/03/13 17:30:15,43.4251,7.2766,,,,,0.5,16.76,50,1.97889,2.75652,,01449999747009,1,6,11
61941,2012/03/13 19:00:07,43.3331,7.3556,,,,,0.5,15,50,-1.89724,1.18411,,01449999747009,1,6,11
61941,2012/03/13 19:30:19,43.3030,7.3804,,,,,0.5,14.76,50,-1.84711,1.10725,,01449999747009,1,6,11
61941,2012/03/13 20:00:25,43.2743,7.4074,,,,,0.5,14.52,50,-1.76705,1.21006,,01449999747009,1,6,11
61941,2012/03/13 20:30:23,43.2436,7.4357,,,,,0.5,14.28,50,-1.8986,1.27459,,01449999747009,1,6,11
61941,2012/03/13 21:00:13,43.2131,7.4652,,,,,0.5,14.2,50,-1.89466,1.33525,,01449999747009,1,6,11
61941,2012/03/13 21:30:21,43.1834,7.4924,,,,,0.5,14.12,50,-1.8266,1.21949,,01449999747009,1,6,11
61941,2012/03/13 22:00:36,43.1535,7.5175,,,,,0.5,13.88,50,-1.83181,1.12154,,01449999747009,1,4,11
61941,2012/03/13 22:30:18,43.1253,7.5443,,,,,0.5,13.8,50,-1.75965,1.22026,,01449999747009,1,4,11
61941,2012/03/13 23:00:08,43.0986,7.5673,,,,,0.5,13.72,50,-1.65861,1.04302,,01449999747009,1,4,11
61941,2012/03/13 23:30:03,43.1859,7.5910,,,,,0.5,13.72,50,5.40798,1.07124,,01449999747009,1,4,11
61941,2012/03/14 00:00:22,43.2746,7.6174,,,,,0.5,13.64,50,5.4222,1.17584,,01449999747009,1,6,11
61941,2012/03/14 00:30:33,43.3634,7.6433,,,,,0.5,13.56,50,5.4523,1.15698,,01449999747009,3,6,11
61941,2012/03/14 01:00:27,43.4541,7.6634,,,,,0.5,13.48,50,5.62173,0.905057,,01449999747009,3,6,11
61941,2012/03/14 01:30:29,43.5392,7.6927,,,,,0.5,13.32,50,5.25121,1.31155,,01449999747009,1,6,11
61941,2012/03/14 02:00:16,43.5450,7.7384,,,,,0.5,13.24,50,0.360901,2.06127,,01449999747009,3,6,11
61941,2012/03/14 02:30:35,43.4945,7.7874,,,,,0.5,13.08,50,-3.08705,2.17204,,01449999747009,3,6,11
61941,2012/03/14 03:00:06,43.4406,7.8363,,,,,0.5,13.08,50,-3.38419,2.22829,,01449999747009,4,6,11
61941,2012/03/14 03:30:21,43.3861,7.8891,,,,,0.5,13,50,-3.33891,2.34978,,01449999747009,4,6,11
61941,2012/03/14 04:00:06,43.3330,7.9147,,,,,0.5,13.08,50,-3.30781,1.15946,,01449999747009,3,6,11
61941,2012/03/14 04:30:06,43.3197,7.8322,,,,,0.5,13.16,50,-0.821607,-3.70744,,01449999747009,3,6,11
61941,2012/03/14 05:00:05,43.3736,7.7784,,,,,0.5,13.08,50,3.33152,-2.41823,,01449999747009,1,6,11
61941,2012/03/14 05:30:07,43.4265,7.7211,,,,,0.5,13.08,50,3.26427,-2.569,,01449999747009,1,6,11
61941,2012/03/14 06:00:34,43.4807,7.6660,,,,,0.5,12.92,50,3.29872,-2.43441,,01449999747009,3,6,11
61941,2012/03/14 06:30:34,43.5339,7.6125,,,,,0.5,12.68,50,3.28643,-2.39704,,01449999747009,4,6,11
61941,2012/03/14 07:00:34,43.5757,7.5488,,,,,0.5,12.76,50,2.58219,-2.8518,,01449999747009,4,11,11
61941,2012/03/14 07:30:19,43.5920,7.4641,,,,,0.5,13.64,50,1.01539,-3.82198,,01449999747009,4,11,11
61941,2012/03/14 08:00:12,43.6003,7.3868,,,,,0.5,14.2,50,0.514734,-3.47179,,01449999747009,4,9,11
61941,2012/03/14 08:30:03,43.5645,7.4228,,,,,0.5,16.36,50,-2.22266,1.61905,,01119999747009,3,9,11
61941,2012/03/14 09:00:33,43.5619,7.4214,,,,,0.5,13.72,50,-0.157982,-0.061641,,01119999717009,3,6,10.9
61941,2012/03/14 09:30:03,43.5595,7.4194,,,,,0.5,13.72,50,-0.150773,-0.091047,,01119999717009,3,6,10.9
61941,2012/03/14 10:00:03,43.5577,7.4173,,,,,0.5,13.88,50,-0.111195,-0.09401,,01119999717009,3,7,10.9
61941,2012/03/14 10:30:13,43.5562,7.4149,,,,,0.5,13.96,50,-0.09215,-0.106849,,01119999717009,3,7,10.9
61941,2012/03/14 11:00:05,43.5298,7.4124,,,,,0.5,14.12,50,-1.63814,-0.112445,,01449999717009,3,7,11
61941,2012/03/14 11:30:04,43.5547,7.4103,,,,,0.5,14.12,50,1.53905,-0.094087,,01119999717009,1,7,11
61941,2012/03/14 12:00:52,43.5544,7.4085,,,,,0.5,14.04,50,-0.018051,-0.078492,,01119999717009,5,7,11
61941,2012/03/14 12:30:12,43.5536,7.4064,,,,,0.5,14.12,50,-0.050543,-0.096153,,01119999717009,5,7,11
61941,2012/03/14 13:00:13,43.5529,7.4045,,,,,0.5,14.2,50,-0.043218,-0.085017,,01119999717009,4,15,10.9
61941,2012/03/14 13:30:05,43.5519,7.4028,,,,,0.5,14.28,50,-0.062051,-0.076451,,01119999717009,4,15,10.9
61941,2012/03/14 14:00:13,43.5506,7.4009,,,,,0.5,14.2,50,-0.079952,-0.08469,,01119999717009,4,17,10.9
61941,2012/03/14 14:30:34,43.5495,7.3991,,,,,0.5,14.28,50,-0.067169,-0.079662,,01119999717009,4,17,10.9
61941,2012/03/14 15:00:08,43.5481,7.3971,,,,,0.5,14.28,50,-0.087752,-0.09086,,01119999717009,4,17,10.9
61941,2012/03/14 15:30:03,43.5468,7.3950,,,,,0.5,14.28,50,-0.080531,-0.094289,,01119999717009,1,17,10.9
61941,2012/03/14 16:00:19,43.5453,7.3935,,,,,0.5,14.2,50,-0.091846,-0.066572,,01119999717009,3,20,10.9
61941,2012/03/14 16:31:00,43.5438,7.3912,,,,,0.5,14.2,50,-0.090599,-0.100693,,01119999717009,3,20,10.9
61941,2012/03/14 17:00:18,43.5423,7.3891,,,,,0.5,14.04,50,-0.094876,-0.09628,,01119999717009,3,19,10.9
61941,2012/03/14 17:30:14,43.5406,7.3869,,,,,0.5,13.96,50,-0.105251,-0.098734,,01119999717009,4,19,10.9
61941,2012/03/14 18:00:18,43.5390,7.3848,,,,,0.5,13.88,50,-0.098621,-0.09383,,01119999717009,4,22,11
61941,2012/03/14 18:30:09,43.5373,7.3819,,,,,0.5,13.8,50,-0.105545,-0.130519,,01119999717009,3,22,11
61941,2012/03/14 19:00:04,43.5355,7.3798,,,,,0.5,13.8,50,-0.111505,-0.094306,,01119999717009,3,17,10.9
61941,2012/03/14 19:30:18,43.5338,7.3767,,,,,0.5,13.8,50,-0.104207,-0.13776,,01119999717009,4,17,10.9
61941,2012/03/14 20:00:12,43.5316,7.3744,,,,,0.5,13.88,50,-0.136359,-0.103352,,01119999717009,4,17,11
61941,2012/03/14 20:30:37,43.5296,7.3715,,,,,0.5,13.88,50,-0.121857,-0.128104,,01119999717009,1,17,11
61941,2012/03/14 21:00:03,43.5272,7.3690,,,,,0.5,13.8,50,-0.151114,-0.114128,,01119999717009,1,17,11
61941,2012/03/14 21:30:11,43.5246,7.3663,,,,,0.5,13.72,50,-0.159904,-0.1204,,01119999717009,1,17,11
61941,2012/03/14 22:00:11,43.5218,7.3627,,,,,0.5,13.72,50,-0.17297,-0.161254,,01119999717009,3,20,10.9
61941,2012/03/14 22:30:05,43.5190,7.3588,,,,,0.5,13.72,50,-0.173548,-0.175284,,01119999717009,3,20,10.9
61941,2012/03/14 23:00:34,43.5159,7.3545,,,,,0.5,13.72,50,-0.188466,-0.189573,,01119999717009,1,20,10.9
61941,2012/03/14 23:30:16,43.5129,7.3501,,,,,0.5,13.72,50,-0.187197,-0.199108,,01119999717009,3,20,10.9
61941,2012/03/15 00:00:19,43.5100,7.3455,,,,,0.5,13.72,50,-0.178849,-0.205744,,01119999717009,3,20,10.9
61941,2012/03/15 00:31:16,43.5069,7.3406,,,,,0.5,13.64,50,-0.185624,-0.212799,,01119999717009,3,20,10.9
61941,2012/03/15 01:00:04,43.5042,7.3361,,,,,0.5,13.64,50,-0.173742,-0.210027,,01119999717009,3,17,10.9
61941,2012/03/15 01:30:16,43.5013,7.3310,,,,,0.5,13.64,50,-0.177961,-0.227007,,01119999717009,5,17,10.9
61941,2012/03/15 02:00:06,43.4985,7.3253,,,,,0.5,13.64,50,-0.173936,-0.256844,,01119999717009,5,17,10.9
61941,2012/03/15 02:30:20,43.4956,7.3191,,,,,0.5,13.64,50,-0.177765,-0.275691,,01119999717009,4,17,10.9
61941,2012/03/15 03:00:04,43.4929,7.3125,,,,,0.5,13.64,50,-0.168288,-0.298427,,01119999717009,4,22,10.9
61941,2012/03/15 03:30:35,43.4901,7.3054,,,,,0.5,13.64,50,-0.170041,-0.312808,,01119999717009,1,22,10.9
61941,2012/03/15 04:00:21,43.4876,7.2982,,,,,0.5,13.56,50,-0.155648,-0.325221,,01119999717009,1,20,10.9
61941,2012/03/15 04:30:03,43.4854,7.2916,,,,,0.5,13.56,50,-0.137278,-0.2988,,01119999717009,1,20,10.9
61941,2012/03/15 05:00:03,43.4827,7.2860,,,,,0.5,13.56,50,-0.166792,-0.251002,,01119999717009,1,20,10.9
61941,2012/03/15 05:30:14,43.4811,7.2774,,,,,0.5,13.56,50,-0.09824,-0.38314,,01119999717009,1,20,10.9
61941,2012/03/15 06:01:04,43.4790,7.2695,,,,,0.5,13.56,50,-0.126221,-0.344545,,01119999717009,1,17,10.5
61941,2012/03/15 06:30:04,43.4771,7.2623,,,,,0.5,13.56,50,-0.12142,-0.333878,,01119999717009,1,17,10.5
61941,2012/03/15 07:00:15,43.4754,7.2549,,,,,0.5,13.56,50,-0.10438,-0.329709,,01119999717009,5,20,10.9
61941,2012/03/15 07:30:14,43.4738,7.2475,,,,,0.5,13.56,50,-0.098895,-0.331918,,01119999717009,3,20,10.9
61941,2012/03/15 08:00:34,43.4722,7.2398,,,,,0.5,13.56,50,-0.097754,-0.341398,,01119999717009,3,17,10.9
61941,2012/03/15 08:30:10,43.4706,7.2328,,,,,0.5,13.56,50,-0.100176,-0.318059,,01119999717009,3,17,10.9
61941,2012/03/15 09:00:13,43.4692,7.2246,,,,,0.5,13.56,50,-0.086341,-0.367013,,01119999717009,3,17,10.9
61941,2012/03/15 09:30:16,43.4681,7.2176,,,,,0.5,13.56,50,-0.067839,-0.31331,,01119999717009,1,17,10.9
61941,2012/03/15 10:00:07,43.4672,7.2105,,,,,0.5,13.56,50,-0.055877,-0.319921,,01119999717009,1,17,10.9
61941,2012/03/15 10:30:15,43.4665,7.2029,,,,,0.5,13.64,50,-0.043051,-0.339235,,01119999717009,1,17,10.9
61941,2012/03/15 11:00:34,43.4657,7.1957,,,,,0.5,13.64,50,-0.048904,-0.319441,,01119999717009,1,17,10.9
61941,2012/03/15 11:30:14,43.4650,7.1889,,,,,0.5,13.64,50,-0.043728,-0.308308,,01119999717009,1,17,10.9
61941,2012/03/15 12:00:19,43.4645,7.1820,,,,,0.5,13.64,50,-0.030802,-0.308512,,01119999717009,1,17,10.9
61941,2012/03/15 12:30:07,43.4640,7.1762,,,,,0.5,13.64,50,-0.031095,-0.261797,,01119999717009,4,17,10.9
61941,2012/03/15 13:00:10,43.4637,7.1693,,,,,0.5,13.64,50,-0.018502,-0.308859,,01119999717009,4,20,10.9
61941,2012/03/15 13:30:34,43.4641,7.1629,,,,,0.5,13.72,50,0.024385,-0.28318,,01119999717009,4,20,10.9
61941,2012/03/15 14:00:14,43.4645,7.1571,,,,,0.5,13.72,50,0.024988,-0.262973,,01119999717009,1,17,10.9
61941,2012/03/15 14:30:06,43.4646,7.1517,,,,,0.5,13.72,50,0.006205,-0.243197,,01119999717009,1,17,10.9
61941,2012/03/15 15:00:34,43.4649,7.1465,,,,,0.5,13.72,50,0.018249,-0.229577,,01119999717009,3,17,10.9
61941,2012/03/15 15:30:25,43.4651,7.1417,,,,,0.5,13.64,50,0.012417,-0.216294,,01119999717009,3,17,10.9
61941,2012/03/15 16:00:19,43.4653,7.1374,,,,,0.5,13.64,50,0.012396,-0.193439,,01119999717009,3,19,10.9
61941,2012/03/15 16:30:23,43.4656,7.1329,,,,,0.5,13.64,50,0.018491,-0.201313,,01119999717009,3,19,10.9
61941,2012/03/15 17:00:15,43.4656,7.1293,,,,,0.5,13.64,50,0,-0.162128,,01119999717009,3,20,10.9
61941,2012/03/15 17:30:34,43.4659,7.1253,,,,,0.5,13.64,50,0.018339,-0.177468,,01119999717009,3,20,10.9
61941,2012/03/15 18:00:10,43.4660,7.1218,,,,,0.5,13.64,50,0.006261,-0.159044,,01119999717009,3,22,10.9
61941,2012/03/15 18:30:08,43.4664,7.1188,,,,,0.5,13.64,50,0.024737,-0.134655,,01119999717009,1,22,10.9
61941,2012/03/15 19:00:13,43.4667,7.1156,,,,,0.5,13.64,50,0.018481,-0.143074,,01119999717009,1,20,10.9
61941,2012/03/15 19:30:20,43.4668,7.1130,,,,,0.5,13.64,50,0.006154,-0.116118,,01119999717009,1,20,10.9
61941,2012/03/15 20:00:59,43.4670,7.1104,,,,,0.5,13.64,50,0.012093,-0.114098,,01119999717009,1,22,10.9
61941,2012/03/15 20:30:12,43.4669,7.1078,,,,,0.5,13.56,50,-0.006343,-0.119695,,01119999717009,1,22,10.9
61941,2012/03/15 21:00:03,43.4666,7.1056,,,,,0.5,13.56,50,-0.018626,-0.099132,,01119999717009,1,22,10.9
61941,2012/03/15 21:30:04,43.4661,7.1036,,,,,0.5,13.56,50,-0.03087,-0.08962,,01119999717009,1,22,10.9
61941,2012/03/15 22:00:09,43.4655,7.1016,,,,,0.5,13.56,50,-0.036962,-0.089422,,01119999717009,1,19,10.9
61941,2012/03/15 22:31:58,43.4644,7.0992,,,,,0.5,13.56,50,-0.064073,-0.101462,,01119999717009,1,19,10.9
61941,2012/03/15 23:00:12,43.4631,7.0971,,,,,0.5,13.56,50,-0.085333,-0.100049,,01119999717009,1,20,10.9
61941,2012/03/15 23:30:08,43.4616,7.0949,,,,,0.5,13.56,50,-0.092869,-0.098863,,01119999717009,1,20,10.9
61941,2012/03/16 00:00:16,43.4598,7.0924,,,,,0.5,13.56,50,-0.110703,-0.111602,,01119999717009,1,25,10.9
61941,2012/03/16 00:31:05,43.4581,7.0897,,,,,0.5,13.56,50,-0.102234,-0.117861,,01119999717009,1,25,10.9
61941,2012/03/16 01:00:04,43.4562,7.0869,,,,,0.5,13.56,50,-0.12149,-0.129961,,01119999717009,1,17,10.9
61941,2012/03/16 01:30:06,43.4543,7.0837,,,,,0.5,13.56,50,-0.117242,-0.143339,,01119999717009,5,17,10.9
61941,2012/03/16 02:00:36,43.4523,7.0803,,,,,0.5,13.56,50,-0.121525,-0.149972,,01119999717009,3,20,10.9
61941,2012/03/16 02:30:04,43.4500,7.0769,,,,,0.5,13.56,50,-0.144654,-0.155237,,01119999717009,3,20,10.9
61941,2012/03/16 03:00:11,43.4484,7.0726,,,,,0.5,13.56,50,-0.098457,-0.192098,,01119999717009,3,17,10.9
61941,2012/03/16 03:30:14,43.4459,7.0690,,,,,0.5,13.56,50,-0.15418,-0.161188,,01119999717009,5,17,10.9
61941,2012/03/16 04:01:01,43.4440,7.0640,,,,,0.5,13.56,50,-0.114386,-0.218548,,01119999717009,5,17,10.9
61941,2012/03/16 04:30:25,43.4418,7.0595,,,,,0.5,13.56,50,-0.138678,-0.205955,,01119999717009,5,17,10.9
61941,2012/03/16 05:00:07,43.4395,7.0550,,,,,0.5,13.56,50,-0.143518,-0.203882,,01119999717009,5,19,10.9
61941,2012/03/16 05:30:07,43.4373,7.0504,,,,,0.5,13.56,50,-0.135905,-0.206336,,01119999717009,4,19,10.9
61941,2012/03/16 06:00:34,43.4351,7.0450,,,,,0.5,13.56,50,-0.133896,-0.23865,,01119999717009,4,17,10.9
61941,2012/03/16 06:30:07,43.4329,7.0399,,,,,0.5,13.56,50,-0.137975,-0.232264,,01119999717009,3,17,10.9
61941,2012/03/16 07:00:10,43.4308,7.0346,,,,,0.5,13.56,50,-0.129512,-0.237365,,01119999717009,3,17,10.8
61941,2012/03/16 07:30:04,43.4288,7.0294,,,,,0.5,13.56,50,-0.123963,-0.234063,,01119999717009,3,17,10.8
61941,2012/03/16 08:00:10,43.4265,7.0233,,,,,0.5,13.56,50,-0.14161,-0.272759,,01119999717009,1,15,10.9
61941,2012/03/16 08:30:34,43.4249,7.0178,,,,,0.5,13.56,50,-0.097539,-0.243511,,01119999717009,1,15,10.9
61941,2012/03/16 09:00:08,43.4233,7.0123,,,,,0.5,13.56,50,-0.100289,-0.250381,,01119999717009,1,17,10.9
61941,2012/03/16 09:30:04,43.4216,7.0066,,,,,0.5,13.64,50,-0.105251,-0.256314,,01119999717009,1,17,10.9
61941,2012/03/16 10:00:04,43.4204,7.0009,,,,,0.5,13.72,50,-0.07413,-0.255751,,01119999717009,1,17,10.9
61941,2012/03/16 10:30:11,43.4191,6.9953,,,,,0.5,13.88,50,-0.079996,-0.250296,,01119999717009,1,17,10.9
61941,2012/03/16 11:00:34,43.4181,6.9897,,,,,0.5,13.8,50,-0.060996,-0.248104,,01119999717009,1,17,10.9
61941,2012/03/16 11:30:25,43.4171,6.9847,,,,,0.5,13.8,50,-0.061536,-0.236894,,01119999717009,1,17,10.9
61941,2012/03/16 12:00:15,43.4163,6.9798,,,,,0.5,13.88,50,-0.049696,-0.2211,,01119999717009,1,17,10.9
61941,2012/03/16 12:30:36,43.4157,6.9750,,,,,0.5,13.88,50,-0.036638,-0.212903,,01119999717009,5,17,10.9
61941,2012/03/16 13:00:05,43.4146,6.9716,,,,,0.5,13.96,50,-0.069143,-0.155241,,01119999717009,4,17,10.9
61941,2012/03/16 13:30:06,43.4146,6.9668,,,,,0.5,13.88,50,0,-0.215272,,01119999717009,4,17,10.9
61941,2012/03/16 14:00:04,43.4144,6.9628,,,,,0.5,13.88,50,-0.012369,-0.179693,,01119999717009,4,14,10.9
61941,2012/03/16 14:30:34,43.4138,6.9592,,,,,0.5,13.88,50,-0.036457,-0.158897,,01119999717009,4,14,10.9
61941,2012/03/16 15:00:16,43.4131,6.9560,,,,,0.5,13.88,50,-0.043679,-0.145048,,01119999717009,3,17,10.9
61941,2012/03/16 15:30:09,43.4123,6.9532,,,,,0.5,13.88,50,-0.049613,-0.12614,,01119999717009,3,17,10.9
61941,2012/03/16 16:00:16,43.4112,6.9507,,,,,0.5,13.96,50,-0.067689,-0.111754,,01119999717009,3,14,10.9
61941,2012/03/16 16:30:15,43.4104,6.9477,,,,,0.5,13.96,50,-0.049447,-0.134703,,01119999717009,3,14,10.9
61941,2012/03/16 17:00:03,43.4095,6.9452,,,,,0.5,13.88,50,-0.055971,-0.112945,,01119999717009,3,14,10.9
61941,2012/03/16 17:30:06,43.4086,6.9428,,,,,0.5,13.88,50,-0.055505,-0.107527,,01119999717009,6,14,10.9
61941,2012/03/16 18:00:06,43.4076,6.9402,,,,,0.5,13.88,50,-0.061775,-0.116683,,01119999717009,6,12,10.9
61941,2012/03/16 18:30:05,43.4065,6.9379,,,,,0.5,13.8,50,-0.06799,-0.103279,,01119999717009,5,12,10.9
61941,2012/03/16 19:00:21,43.4051,6.9356,,,,,0.5,13.72,50,-0.085723,-0.102314,,01119999717009,5,12,10.9
61941,2012/03/16 19:30:27,43.4036,6.9337,,,,,0.5,13.72,50,-0.092355,-0.08499,,01119999717009,1,12,10.9